Погода в Белозерье

Россия / Республика Мордовия     54°20′19″N   45°22′31″E
темп.,
°C
ветер,
м/с
пор.,
м/с
влажн.,
%
обл.,
%
осадки,
мм/ч
давл.,
гПа
погр.,
м
25 июня, сб
сб2500:00+14с22880 0.0 101312
03:00+13с22885 0.0 101312
06:00+16с25842 0.0 1014151
09:00+21с46663 0.0 1015532
12:00+23с57565 0.0 10151705
15:00+24с585993 0.0 10151993
18:00+22с37690 0.1 1015367
21:00+19сз25766 0.1 101699
26 июня, вс
вс2600:00+16сз229046 0.0 101716
03:00+14ссз22910 0.0 101821
06:00+17с39820 0.0 1019345
09:00+19ссв57620 0.0 1020782
12:00+21ссв57520 0.0 10201319
15:00+21ссв57535 0.0 10201389
18:00+20с36672 0.0 1020422
21:00+15ссз11760 0.0 102111
27 июня, пн
пн2700:00+14зсз11780 0.0 102111
03:00+13зюз22770 0.0 102110
06:00+16зюз26783 0.0 1021167
09:00+20зюз587451 0.0 1020420
12:00+25з79640 0.0 10171084
15:00+26з69725 2.0 10161323
18:00+24сз48800 4.5 1014300
21:00+20зсз35872 4.7 101570
28 июня, вт
вт2800:00+17св11935 0.4 101511
03:00+15ссз399817 0.4 1016255
06:00+14ссв410900 0.0 1018441
09:00+15св57700 0.0 1019995
12:00+17ссв565641 0.0 10201812
15:00+16ссв565816 0.0 10201591
18:00+15ссв57650 0.0 10211029
21:00+11ссв22750 0.0 102210
29 июня, ср
ср2900:00+9ссз22740 0.0 102210
03:00+8ссз22750 0.0 102310
06:00+11ссз25745 0.0 1023189
09:00+15с46580 0.0 1023826
12:00+18ссв56495 0.0 10221855
15:00+18ссв57505 0.0 10222004
18:00+17ссв46630 0.0 1022521
21:00+12ссз12710 0.0 102310